Погода в Габесе

Тунис     33°54′40″N   10°03′32″E
темп.,
°C
ветер,
м/с
пор.,
м/с
влажн.,
%
обл.,
%
осадки,
мм/ч
давл.,
гПа
погр.,
м
21 апреля, ср
ср2101:00+20ююв6103598 0.0 1015224
04:00+20ююв61231100 0.0 1014221
07:00+20юв51033100 0.0 1014239
10:00+22всв543686 0.0 1015385
13:00+23всв793744 0.0 1013381
16:00+23в101343100 0.0 1011380
19:00+21в7125315 0.0 1011365
22:00+19в710699 0.0 1011314
22 апреля, чт
чт2201:00+18св78785 0.0 1010264
04:00+18с577865 0.0 1009185
07:00+18ссв5671100 0.0 1011203
10:00+20св2362100 0.0 1012252
13:00+24св434780 0.0 1010389
16:00+24св6744100 0.0 1008316
19:00+20всв8126583 0.0 1010352
22:00+19всв81372100 0.0 1012453
23 апреля, пт
пт2301:00+18ссв81374100 0.0 1011434
04:00+18ссв81474100 0.0 1010532
07:00+18ссв8137599 0.0 1012627
10:00+21ссв9125727 0.0 1013922
13:00+23с11134295 0.0 10141351
16:00+23ссв884052 0.0 10131291
19:00+21св79488 0.0 10151086
22:00+18в67716 0.0 1017444
24 апреля, сб
сб2401:00+18св48685 0.0 1017588
04:00+16ссв7117214 0.0 1017632
07:00+16ссв7107122 0.0 1018810
10:00+18св78609 0.0 10201022
13:00+21всв46464 0.0 10191144
16:00+20в55570 0.0 1018525
19:00+18вюв78641 0.0 1019477
22:00+18в79670 0.0 1021599
25 апреля, вс
вс2501:00+17всв67680 0.0 1020527
04:00+16всв56730 0.0 1019433
07:00+17всв56735 0.0 1020614
10:00+19в56645 0.0 1021720
13:00+21в56540 0.0 1020732
16:00+21в77545 0.0 1018559
19:00+20вюв89610 0.0 1018462
22:00+18вюв810695 0.0 1018488